QPF
0.01 0.01 0.02 0.03 0.04 0.03 0.01 0.01 0.00 0.01 0.01 0.02 0.01 0.01 0.00 0.00 0.00 0.00 0.00 0.00 0.00 0.01 0.00 0.00 0.00 0.00 0.01 0.01 0.01 0.01 0.01 0.01 0.00 0.00 0.00 0.01 0.01 0.01 0.01 0.01 0.01 0.01 0.00
0.01 0.02 0.02 0.04 0.04 0.03 0.02 0.01 0.01 0.01 0.01 0.01 0.01 0.01 0.00 0.00 0.00 0.00 0.00 0.00 0.00 0.00 0.00 0.00 0.00 0.00 0.00 0.00 0.00 0.00 0.00 0.00 0.00 0.00 0.00 0.00 0.00 0.00 0.00 0.00 0.00 0.00 0.00
0.01 0.01 0.02 0.03 0.03 0.02 0.01 0.01 0.01 0.01 0.01 0.01 0.01 0.01 0.00 0.00 0.00 0.00 0.00 0.00 0.00 0.00 0.00 0.00 0.00 0.00 0.00 0.00 0.00 0.00 0.00 0.00 0.00 0.00 0.00 0.00 0.00 0.00 0.00 0.00 0.00 0.00 0.00
0.01 0.01 0.01 0.02 0.02 0.01 0.01 0.01 0.01 0.01 0.01 0.01 0.01 0.00 0.00 0.00 0.00 0.00 0.00 0.00 0.00 0.00 0.00 0.00 0.00 0.00 0.00 0.00 0.00 0.00 0.00 0.00 0.00 0.00 0.00 0.00 0.00 0.00 0.00 0.00 0.00 0.00 0.00
0.01 0.01 0.01 0.02 0.02 0.01 0.01 0.01 0.01 0.01 0.01 0.00 0.00 0.00 0.00 0.00 0.00 0.00 0.00 0.00 0.00 0.00 0.00 0.00 0.00 0.00 0.00 0.00 0.00 0.00 0.00 0.00 0.00 0.00 0.00 0.00 0.00 0.00 0.00 0.00 0.00 0.00 0.00
0.01 0.02 0.02 0.02 0.02 0.01 0.01 0.01 0.01 0.01 0.00 0.00 0.00 0.00 0.00 0.00 0.00 0.00 0.00 0.00 0.00 0.00 0.00 0.00 0.00 0.00 0.00 0.00 0.00 0.00 0.00 0.00 0.00 0.00 0.00 0.00 0.00 0.00 0.00 0.01 0.00 0.00 0.00
0.01 0.02 0.02 0.01 0.01 0.01 0.00 0.00 0.00 0.00 0.00 0.00 0.00 0.00 0.00 0.00 0.00 0.00 0.00 0.00 0.00 0.00 0.00 0.00 0.00 0.00 0.00 0.00 0.00 0.00 0.00 0.00 0.00 0.00 0.00 0.00 0.00 0.00 0.00 0.01 0.01 0.01 0.00
0.01 0.01 0.01 0.00 0.00 0.00 0.00 0.00 0.00 0.00 0.00 0.00 0.00 0.00 0.00 0.00 0.00 0.00 0.00 0.00 0.00 0.00 0.00 0.00 0.00 0.00 0.00 0.00 0.00 0.00 0.00 0.00 0.00 0.00 0.00 0.00 0.00 0.00 0.00 0.01 0.01 0.01 0.00
0.03 0.02 0.01 0.00 0.00 0.00 0.00 0.00 0.00 0.00 0.00 0.00 0.00 0.00 0.00 0.00 0.00 0.00 0.00 0.00 0.00 0.00 0.00 0.00 0.00 0.00 0.00 0.00 0.00 0.00 0.00 0.00 0.00 0.00 0.00 0.00 0.00 0.00 0.00 0.00 0.00 0.02 0.02
0.05 0.05 0.03 0.01 0.00 0.00 0.00 0.00 0.00 0.00 0.00 0.00 0.00 0.00 0.00 0.00 0.00 0.00 0.00 0.00 0.00 0.00 0.00 0.00 0.00 0.00 0.00 0.00 0.00 0.00 0.00 0.00 0.00 0.00 0.00 0.00 0.00 0.00 0.00 0.00 0.00 0.01 0.03
0.08 0.08 0.05 0.02 0.00 0.00 0.00 0.00 0.00 0.00 0.00 0.00 0.00 0.00 0.00 0.00 0.00 0.00 0.00 0.00 0.00 0.00 0.00 0.00 0.00 0.00 0.00 0.00 0.00 0.00 0.00 0.00 0.00 0.00 0.00 0.00 0.00 0.00 0.00 0.00 0.00 0.01 0.02
0.09 0.07 0.05 0.02 0.00 0.00 0.00 0.00 0.00 0.00 0.00 0.00 0.00 0.00 0.00 0.00 0.00 0.00 0.00 0.00 0.00 0.00 0.00 0.00 0.00 0.00 0.00 0.00 0.00 0.00 0.00 0.00 0.00 0.00 0.00 0.00 0.00 0.00 0.00 0.01 0.01 0.01 0.02
0.06 0.05 0.04 0.02 0.01 0.01 0.01 0.01 0.00 0.00 0.00 0.00 0.00 0.00 0.00 0.00 0.00 0.00 0.00 0.00 0.00 0.00 0.00 0.00 0.00 0.00 0.00 0.00 0.00 0.00 0.00 0.00 0.00 0.00 0.00 0.00 0.00 0.00 0.01 0.01 0.02 0.02 0.03
0.06 0.05 0.04 0.04 0.04 0.03 0.02 0.00 0.00 0.00 0.00 0.00 0.00 0.00 0.00 0.00 0.00 0.00 0.00 0.00 0.00 0.00 0.00 0.00 0.00 0.00 0.00 0.00 0.00 0.00 0.00 0.00 0.00 0.00 0.00 0.00 0.00 0.00 0.01 0.02 0.03 0.04 0.03
0.09 0.08 0.08 0.07 0.05 0.02 0.00 0.00 0.00 0.00 0.00 0.00 0.00 0.00 0.00 0.00 0.00 0.00 0.00 0.00 0.00 0.00 0.00 0.00 0.00 0.00 0.00 0.00 0.00 0.00 0.00 0.00 0.00 0.00 0.00 0.00 0.00 0.01 0.04 0.04 0.03 0.02 0.01
0.11 0.09 0.08 0.07 0.03 0.01 0.00 0.00 0.00 0.00 0.00 0.00 0.00 0.00 0.00 0.00 0.00 0.00 0.00 0.00 0.00 0.00 0.00 0.00 0.00 0.00 0.00 0.00 0.00 0.00 0.00 0.00 0.00 0.00 0.00 0.00 0.00 0.01 0.02 0.02 0.01 0.01 0.01
0.11 0.09 0.08 0.05 0.02 0.00 0.00 0.00 0.00 0.00 0.00 0.00 0.00 0.00 0.00 0.00 0.00 0.00 0.00 0.00 0.00 0.00 0.00 0.00 0.00 0.00 0.00 0.00 0.00 0.00 0.00 0.00 0.00 0.00 0.00 0.00 0.00 0.00 0.00 0.00 0.00 0.00 0.00
0.12 0.09 0.05 0.02 0.01 0.00 0.00 0.00 0.00 0.00 0.00 0.00 0.00 0.00 0.00 0.00 0.00 0.00 0.00 0.00 0.00 0.00 0.00 0.00 0.00 0.00 0.00 0.00 0.00 0.00 0.00 0.00 0.00 0.00 0.00 0.00 0.00 0.00 0.00 0.00 0.00 0.00 0.01
0.09 0.06 0.02 0.01 0.00 0.00 0.00 0.00 0.00 0.00 0.00 0.00 0.00 0.00 0.00 0.00 0.00 0.00 0.00 0.00 0.00 0.00 0.00 0.00 0.00 0.00 0.00 0.00 0.00 0.00 0.00 0.00 0.00 0.00 0.00 0.00 0.00 0.01 0.01 0.01 0.00 0.00 0.02
0.07 0.03 0.01 0.00 0.00 0.00 0.00 0.00 0.00 0.00 0.00 0.00 0.00 0.00 0.00 0.00 0.00 0.00 0.00 0.00 0.00 0.00 0.00 0.00 0.00 0.00 0.00 0.00 0.00 0.00 0.00 0.00 0.00 0.00 0.00 0.00 0.01 0.01 0.01 0.01 0.01 0.02 0.05
0.08 0.03 0.00 0.00 0.00 0.00 0.00 0.00 0.00 0.00 0.00 0.00 0.00 0.00 0.00 0.00 0.00 0.00 0.00 0.00 0.00 0.00 0.00 0.00 0.00 0.00 0.00 0.00 0.00 0.00 0.00 0.01 0.01 0.01 0.00 0.01 0.02 0.02 0.01 0.01 0.02 0.06 0.12
0.05 0.01 0.00 0.00 0.00 0.00 0.00 0.00 0.00 0.00 0.00 0.00 0.00 0.00 0.00 0.00 0.00 0.00 0.00 0.00 0.00 0.00 0.00 0.00 0.00 0.00 0.00 0.00 0.00 0.00 0.01 0.01 0.02 0.03 0.03 0.03 0.04 0.02 0.01 0.02 0.07 0.12 0.18
0.01 0.00 0.00 0.00 0.00 0.00 0.00 0.00 0.00 0.00 0.00 0.00 0.00 0.00 0.00 0.00 0.00 0.00 0.00 0.00 0.00 0.00 0.00 0.00 0.00 0.00 0.00 0.00 0.00 0.00 0.00 0.01 0.03 0.04 0.05 0.04 0.03 0.02 0.03 0.07 0.12 0.16 0.20
0.00 0.00 0.00 0.00 0.00 0.00 0.00 0.00 0.00 0.00 0.00 0.00 0.00 0.00 0.00 0.00 0.00 0.00 0.00 0.00 0.00 0.00 0.00 0.00 0.00 0.00 0.00 0.01 0.01 0.01 0.02 0.03 0.04 0.05 0.03 0.03 0.03 0.04 0.07 0.11 0.15 0.17 0.20
0.00 0.00 0.00 0.00 0.00 0.00 0.00 0.00 0.00 0.00 0.00 0.00 0.00 0.00 0.00 0.00 0.00 0.00 0.00 0.00 0.00 0.00 0.00 0.00 0.00 0.01 0.01 0.01 0.03 0.04 0.05 0.07 0.08 0.06 0.04 0.04 0.05 0.08 0.11 0.13 0.15 0.15 0.16
0.00 0.00 0.00 0.00 0.00 0.00 0.00 0.00 0.00 0.00 0.00 0.00 0.00 0.00 0.00 0.00 0.00 0.00 0.00 0.00 0.00 0.00 0.00 0.01 0.01 0.01 0.01 0.01 0.01 0.02 0.04 0.06 0.07 0.05 0.06 0.08 0.10 0.13 0.15 0.15 0.16 0.15 0.13
MSLP
1013.64 1014.04 1014.41 1014.71 1014.94 1015.10 1015.25 1015.41 1015.62 1015.90 1016.26 1016.67 1017.10 1017.52 1017.88 1018.17 1018.37 1018.50 1018.58 1018.64 1018.70 1018.79 1018.90 1019.04 1019.18 1019.29 1019.36 1019.38 1019.33 1019.22 1019.08 1018.91 1018.74 1018.59 1018.46 1018.34 1018.23 1018.11 1017.97 1017.81 1017.61 1017.38 1017.12
1014.05 1014.49 1014.88 1015.17 1015.36 1015.48 1015.58 1015.70 1015.90 1016.20 1016.59 1017.06 1017.55 1018.01 1018.41 1018.71 1018.90 1019.01 1019.06 1019.10 1019.14 1019.22 1019.35 1019.50 1019.65 1019.77 1019.83 1019.83 1019.74 1019.60 1019.42 1019.22 1019.03 1018.86 1018.70 1018.56 1018.41 1018.24 1018.03 1017.78 1017.48 1017.16 1016.82
1014.30 1014.82 1015.26 1015.58 1015.78 1015.89 1015.97 1016.08 1016.28 1016.59 1017.02 1017.53 1018.06 1018.57 1018.99 1019.30 1019.49 1019.58 1019.60 1019.61 1019.63 1019.70 1019.81 1019.96 1020.10 1020.21 1020.26 1020.23 1020.12 1019.95 1019.75 1019.54 1019.34 1019.16 1019.00 1018.84 1018.65 1018.41 1018.12 1017.77 1017.36 1016.94 1016.51
1014.40 1015.02 1015.55 1015.94 1016.18 1016.32 1016.41 1016.53 1016.74 1017.07 1017.52 1018.06 1018.63 1019.16 1019.60 1019.92 1020.09 1020.16 1020.16 1020.14 1020.13 1020.17 1020.26 1020.37 1020.49 1020.58 1020.60 1020.55 1020.42 1020.25 1020.05 1019.84 1019.66 1019.49 1019.32 1019.14 1018.91 1018.62 1018.24 1017.78 1017.27 1016.74 1016.22
1014.39 1015.13 1015.77 1016.26 1016.58 1016.77 1016.90 1017.04 1017.27 1017.62 1018.08 1018.63 1019.21 1019.75 1020.20 1020.50 1020.67 1020.72 1020.69 1020.64 1020.59 1020.59 1020.64 1020.71 1020.79 1020.84 1020.83 1020.76 1020.63 1020.46 1020.27 1020.09 1019.93 1019.78 1019.62 1019.43 1019.17 1018.82 1018.36 1017.82 1017.21 1016.58 1015.97
1014.32 1015.18 1015.95 1016.55 1016.97 1017.24 1017.42 1017.60 1017.84 1018.19 1018.66 1019.20 1019.76 1020.29 1020.72 1021.02 1021.17 1021.20 1021.14 1021.06 1020.97 1020.93 1020.92 1020.94 1020.97 1020.98 1020.94 1020.85 1020.71 1020.56 1020.39 1020.24 1020.11 1019.98 1019.84 1019.64 1019.36 1018.96 1018.44 1017.82 1017.14 1016.43 1015.76
1014.24 1015.23 1016.12 1016.84 1017.36 1017.71 1017.95 1018.17 1018.42 1018.77 1019.21 1019.72 1020.25 1020.75 1021.15 1021.41 1021.54 1021.55 1021.47 1021.35 1021.23 1021.13 1021.07 1021.04 1021.02 1020.98 1020.91 1020.80 1020.67 1020.52 1020.38 1020.26 1020.15 1020.05 1019.91 1019.71 1019.41 1018.98 1018.42 1017.76 1017.02 1016.27 1015.55
1014.19 1015.28 1016.28 1017.11 1017.73 1018.16 1018.47 1018.72 1018.98 1019.31 1019.71 1020.17 1020.65 1021.08 1021.43 1021.66 1021.75 1021.73 1021.63 1021.48 1021.33 1021.19 1021.08 1021.00 1020.93 1020.85 1020.75 1020.62 1020.49 1020.35 1020.22 1020.12 1020.03 1019.93 1019.79 1019.59 1019.27 1018.83 1018.26 1017.58 1016.83 1016.05 1015.31
1014.19 1015.36 1016.45 1017.36 1018.07 1018.58 1018.94 1019.22 1019.48 1019.78 1020.13 1020.53 1020.93 1021.29 1021.57 1021.74 1021.80 1021.74 1021.61 1021.44 1021.26 1021.09 1020.95 1020.83 1020.72 1020.61 1020.48 1020.34 1020.20 1020.06 1019.94 1019.83 1019.74 1019.63 1019.49 1019.27 1018.95 1018.50 1017.93 1017.26 1016.52 1015.75 1015.01
1014.23 1015.46 1016.60 1017.58 1018.36 1018.92 1019.33 1019.64 1019.90 1020.17 1020.46 1020.78 1021.10 1021.37 1021.57 1021.68 1021.68 1021.59 1021.43 1021.24 1021.05 1020.86 1020.70 1020.56 1020.43 1020.30 1020.15 1020.00 1019.85 1019.70 1019.56 1019.44 1019.32 1019.19 1019.02 1018.78 1018.45 1018.00 1017.45 1016.80 1016.09 1015.36 1014.64
1014.30 1015.56 1016.74 1017.76 1018.58 1019.20 1019.65 1019.97 1020.23 1020.46 1020.70 1020.94 1021.16 1021.34 1021.45 1021.48 1021.42 1021.30 1021.12 1020.92 1020.72 1020.53 1020.37 1020.22 1020.09 1019.95 1019.80 1019.64 1019.47 1019.30 1019.14 1018.99 1018.83 1018.66 1018.46 1018.19 1017.84 1017.39 1016.85 1016.24 1015.56 1014.87 1014.18
1014.40 1015.68 1016.87 1017.91 1018.76 1019.40 1019.87 1020.21 1020.46 1020.67 1020.85 1021.01 1021.14 1021.23 1021.25 1021.20 1021.09 1020.92 1020.73 1020.52 1020.33 1020.16 1020.01 1019.88 1019.75 1019.62 1019.47 1019.31 1019.13 1018.94 1018.74 1018.54 1018.34 1018.11 1017.86 1017.55 1017.18 1016.73 1016.20 1015.61 1014.97 1014.31 1013.65
1014.55 1015.82 1017.00 1018.03 1018.88 1019.54 1020.03 1020.38 1020.62 1020.81 1020.94 1021.03 1021.08 1021.07 1021.01 1020.89 1020.73 1020.53 1020.32 1020.11 1019.94 1019.79 1019.67 1019.56 1019.46 1019.34 1019.21 1019.04 1018.84 1018.62 1018.38 1018.14 1017.87 1017.59 1017.28 1016.94 1016.53 1016.07 1015.54 1014.96 1014.33 1013.69 1013.04
1014.76 1016.00 1017.15 1018.15 1018.98 1019.63 1020.12 1020.47 1020.72 1020.87 1020.97 1021.00 1020.98 1020.90 1020.77 1020.59 1020.38 1020.16 1019.94 1019.75 1019.59 1019.48 1019.39 1019.31 1019.24 1019.14 1019.01 1018.84 1018.62 1018.37 1018.09 1017.79 1017.46 1017.12 1016.76 1016.36 1015.92 1015.43 1014.89 1014.30 1013.67 1013.03 1012.38
1015.06 1016.25 1017.33 1018.28 1019.07 1019.70 1020.17 1020.52 1020.75 1020.89 1020.96 1020.95 1020.88 1020.75 1020.56 1020.34 1020.10 1019.86 1019.65 1019.47 1019.34 1019.26 1019.20 1019.15 1019.10 1019.01 1018.88 1018.69 1018.45 1018.16 1017.83 1017.47 1017.09 1016.69 1016.26 1015.81 1015.33 1014.81 1014.25 1013.64 1013.00 1012.33 1011.66
1015.46 1016.57 1017.57 1018.43 1019.16 1019.74 1020.19 1020.52 1020.74 1020.87 1020.92 1020.89 1020.78 1020.62 1020.41 1020.16 1019.91 1019.67 1019.47 1019.32 1019.21 1019.15 1019.12 1019.09 1019.04 1018.95 1018.80 1018.59 1018.31 1017.97 1017.59 1017.17 1016.72 1016.25 1015.77 1015.27 1014.75 1014.19 1013.60 1012.97 1012.30 1011.61 1010.91
1015.96 1016.96 1017.85 1018.62 1019.26 1019.78 1020.19 1020.50 1020.70 1020.83 1020.87 1020.83 1020.72 1020.54 1020.33 1020.08 1019.84 1019.62 1019.43 1019.30 1019.22 1019.17 1019.15 1019.11 1019.05 1018.94 1018.76 1018.50 1018.17 1017.77 1017.32 1016.82 1016.31 1015.78 1015.24 1014.69 1014.13 1013.54 1012.92 1012.26 1011.58 1010.87 1010.15
1016.53 1017.40 1018.17 1018.82 1019.37 1019.82 1020.18 1020.46 1020.66 1020.78 1020.82 1020.79 1020.69 1020.53 1020.34 1020.11 1019.90 1019.70 1019.54 1019.43 1019.36 1019.32 1019.28 1019.23 1019.13 1018.97 1018.74 1018.41 1018.01 1017.53 1017.00 1016.43 1015.84 1015.25 1014.65 1014.05 1013.44 1012.83 1012.19 1011.53 1010.85 1010.14 1009.44
1017.12 1017.87 1018.50 1019.04 1019.50 1019.87 1020.18 1020.43 1020.62 1020.74 1020.80 1020.80 1020.73 1020.60 1020.44 1020.26 1020.08 1019.92 1019.79 1019.69 1019.63 1019.57 1019.51 1019.42 1019.27 1019.04 1018.73 1018.32 1017.83 1017.26 1016.65 1015.99 1015.32 1014.66 1013.99 1013.35 1012.71 1012.07 1011.44 1010.79 1010.13 1009.46 1008.80
1017.70 1018.32 1018.83 1019.26 1019.62 1019.94 1020.20 1020.43 1020.61 1020.75 1020.83 1020.86 1020.83 1020.76 1020.65 1020.52 1020.38 1020.26 1020.15 1020.07 1019.99 1019.91 1019.81 1019.66 1019.44 1019.13 1018.73 1018.24 1017.65 1016.99 1016.28 1015.54 1014.79 1014.05 1013.32 1012.63 1011.96 1011.32 1010.69 1010.08 1009.48 1008.88 1008.31
1018.23 1018.73 1019.13 1019.47 1019.76 1020.02 1020.25 1020.47 1020.66 1020.81 1020.93 1021.00 1021.02 1021.00 1020.95 1020.87 1020.78 1020.69 1020.60 1020.52 1020.42 1020.30 1020.15 1019.93 1019.63 1019.24 1018.75 1018.17 1017.50 1016.75 1015.95 1015.13 1014.29 1013.48 1012.69 1011.95 1011.26 1010.62 1010.02 1009.46 1008.94 1008.45 1008.00
1018.68 1019.08 1019.40 1019.67 1019.91 1020.13 1020.35 1020.56 1020.76 1020.94 1021.09 1021.21 1021.29 1021.33 1021.33 1021.30 1021.24 1021.18 1021.10 1020.99 1020.87 1020.70 1020.49 1020.20 1019.82 1019.35 1018.79 1018.13 1017.38 1016.56 1015.69 1014.79 1013.90 1013.02 1012.18 1011.40 1010.69 1010.05 1009.49 1008.99 1008.57 1008.20 1007.89
1019.04 1019.37 1019.64 1019.86 1020.07 1020.28 1020.49 1020.71 1020.93 1021.14 1021.33 1021.49 1021.62 1021.70 1021.75 1021.76 1021.73 1021.68 1021.58 1021.46 1021.29 1021.07 1020.78 1020.42 1019.98 1019.44 1018.82 1018.10 1017.30 1016.44 1015.52 1014.58 1013.64 1012.72 1011.84 1011.03 1010.31 1009.68 1009.16 1008.73 1008.41 1008.16 1008.00
1019.34 1019.62 1019.85 1020.06 1020.26 1020.46 1020.68 1020.92 1021.16 1021.40 1021.62 1021.82 1021.99 1022.12 1022.19 1022.23 1022.21 1022.15 1022.03 1021.86 1021.64 1021.35 1021.00 1020.58 1020.07 1019.49 1018.82 1018.08 1017.26 1016.39 1015.46 1014.51 1013.55 1012.62 1011.72 1010.90 1010.18 1009.56 1009.07 1008.71 1008.47 1008.35 1008.31
1019.59 1019.85 1020.06 1020.26 1020.46 1020.68 1020.91 1021.17 1021.43 1021.70 1021.95 1022.18 1022.38 1022.53 1022.63 1022.67 1022.65 1022.56 1022.41 1022.18 1021.90 1021.54 1021.13 1020.64 1020.09 1019.47 1018.79 1018.06 1017.25 1016.40 1015.50 1014.58 1013.64 1012.72 1011.84 1011.02 1010.31 1009.71 1009.26 1008.94 1008.78 1008.74 1008.81
1019.84 1020.08 1020.29 1020.50 1020.71 1020.93 1021.18 1021.46 1021.74 1022.03 1022.30 1022.56 1022.77 1022.94 1023.04 1023.07 1023.03 1022.91 1022.70 1022.42 1022.07 1021.65 1021.17 1020.63 1020.05 1019.42 1018.74 1018.03 1017.27 1016.47 1015.64 1014.77 1013.90 1013.02 1012.18 1011.40 1010.70 1010.13 1009.70 1009.43 1009.31 1009.33 1009.46
Thickness
5737 5735 5731 5727 5723 5718 5715 5710 5706 5702 5699 5694 5688 5681 5673 5668 5664 5660 5656 5652 5648 5643 5637 5631 5626 5621 5616 5610 5606 5602 5597 5593 5589 5586 5584 5582 5578 5575 5572 5568 5566 5564 5562
5728 5726 5722 5719 5715 5709 5705 5701 5696 5693 5689 5685 5679 5672 5664 5657 5652 5647 5643 5639 5634 5629 5623 5617 5611 5606 5600 5595 5590 5585 5580 5575 5571 5567 5564 5564 5563 5561 5559 5556 5554 5551 5548
5719 5717 5714 5709 5705 5700 5696 5691 5686 5682 5677 5673 5667 5660 5654 5647 5640 5634 5629 5624 5620 5614 5608 5603 5597 5592 5586 5580 5574 5568 5562 5557 5553 5548 5545 5544 5546 5545 5547 5545 5543 5539 5536
5712 5709 5705 5700 5695 5690 5686 5681 5675 5669 5664 5659 5655 5650 5643 5635 5627 5621 5616 5611 5606 5601 5595 5589 5583 5577 5571 5564 5557 5550 5544 5539 5534 5531 5529 5527 5527 5526 5531 5533 5531 5527 5525
5706 5701 5696 5691 5685 5680 5675 5669 5663 5656 5651 5646 5642 5637 5630 5623 5616 5610 5604 5598 5592 5586 5580 5573 5566 5560 5553 5546 5539 5533 5527 5522 5518 5516 5515 5514 5513 5511 5511 5517 5518 5515 5512
5699 5692 5686 5681 5675 5669 5664 5657 5651 5643 5638 5634 5630 5625 5619 5612 5606 5599 5592 5585 5578 5571 5564 5557 5550 5543 5536 5530 5524 5518 5513 5509 5506 5503 5501 5500 5499 5499 5497 5501 5504 5503 5501
5690 5683 5676 5671 5665 5659 5652 5645 5639 5631 5626 5621 5616 5611 5605 5600 5593 5586 5579 5572 5564 5557 5550 5542 5535 5528 5521 5515 5510 5506 5502 5499 5496 5493 5491 5488 5486 5485 5485 5485 5488 5489 5490
5681 5674 5668 5662 5656 5649 5641 5633 5626 5618 5612 5607 5601 5596 5592 5587 5581 5575 5567 5560 5552 5545 5538 5530 5523 5515 5508 5503 5499 5496 5492 5489 5487 5485 5481 5478 5475 5472 5470 5469 5469 5474 5478
5670 5664 5658 5651 5644 5637 5629 5621 5612 5605 5598 5593 5589 5584 5580 5575 5570 5563 5556 5549 5541 5534 5527 5519 5511 5504 5498 5494 5490 5487 5484 5481 5477 5474 5470 5466 5463 5460 5457 5454 5452 5453 5460
5659 5652 5646 5639 5632 5625 5617 5609 5602 5595 5587 5582 5578 5573 5569 5564 5559 5553 5546 5538 5530 5523 5515 5508 5501 5495 5490 5486 5482 5478 5475 5470 5467 5462 5458 5454 5450 5447 5444 5441 5439 5438 5441
5648 5639 5632 5625 5618 5611 5605 5598 5591 5584 5577 5571 5566 5562 5558 5553 5548 5542 5535 5526 5519 5511 5504 5497 5491 5486 5482 5478 5473 5468 5464 5459 5454 5449 5444 5441 5437 5435 5432 5430 5429 5429 5430
5639 5629 5620 5612 5605 5599 5594 5587 5580 5573 5566 5560 5555 5551 5546 5541 5535 5529 5522 5515 5507 5500 5493 5487 5482 5478 5474 5470 5464 5459 5454 5447 5441 5436 5430 5427 5425 5422 5421 5421 5422 5424 5424
5632 5622 5613 5606 5598 5590 5584 5576 5570 5563 5556 5549 5544 5538 5533 5528 5522 5516 5510 5504 5497 5490 5485 5478 5473 5469 5465 5460 5454 5447 5441 5433 5427 5421 5416 5414 5412 5411 5411 5412 5415 5418 5420
5626 5616 5606 5597 5588 5579 5571 5565 5559 5552 5544 5538 5532 5526 5522 5516 5510 5505 5500 5495 5489 5482 5477 5471 5465 5460 5455 5449 5442 5434 5426 5419 5413 5407 5403 5401 5400 5401 5403 5406 5410 5413 5415
5618 5608 5595 5584 5575 5565 5556 5550 5545 5540 5533 5526 5521 5516 5512 5506 5501 5497 5493 5488 5482 5476 5470 5463 5457 5450 5442 5435 5427 5420 5413 5406 5401 5397 5393 5392 5393 5395 5398 5402 5406 5407 5409
5611 5597 5584 5575 5566 5556 5546 5539 5533 5528 5521 5516 5512 5508 5504 5499 5495 5491 5486 5480 5475 5469 5461 5454 5446 5437 5429 5421 5413 5406 5400 5394 5391 5389 5387 5386 5387 5390 5393 5397 5401 5402 5405
5601 5588 5576 5567 5558 5548 5538 5529 5524 5517 5512 5509 5505 5500 5496 5492 5488 5484 5478 5472 5467 5459 5451 5442 5433 5424 5415 5408 5401 5395 5389 5385 5383 5382 5381 5382 5384 5386 5389 5394 5398 5401 5403
5587 5574 5563 5554 5545 5537 5528 5521 5515 5510 5506 5501 5496 5492 5488 5484 5480 5474 5467 5461 5454 5445 5436 5428 5419 5411 5404 5397 5390 5385 5380 5378 5378 5378 5379 5380 5383 5386 5389 5393 5398 5402 5408
5569 5558 5549 5540 5532 5525 5519 5513 5508 5503 5498 5494 5489 5484 5479 5474 5468 5461 5453 5445 5437 5429 5421 5413 5406 5398 5392 5385 5380 5377 5375 5375 5377 5378 5381 5382 5384 5388 5390 5393 5399 5405 5413
5549 5541 5533 5526 5520 5515 5510 5505 5500 5495 5490 5485 5480 5474 5469 5463 5455 5446 5438 5429 5422 5414 5407 5400 5393 5387 5381 5377 5373 5371 5371 5372 5375 5378 5381 5384 5386 5389 5391 5395 5399 5406 5416
5531 5525 5519 5514 5510 5506 5502 5497 5492 5487 5482 5477 5471 5464 5457 5450 5441 5433 5424 5416 5409 5402 5395 5388 5382 5377 5373 5370 5368 5368 5367 5368 5371 5375 5379 5383 5386 5389 5392 5396 5402 5409 5416
5517 5512 5509 5506 5503 5500 5496 5491 5485 5480 5475 5468 5460 5453 5447 5440 5430 5421 5412 5405 5398 5391 5384 5378 5374 5370 5368 5366 5365 5366 5366 5366 5369 5373 5377 5381 5385 5390 5395 5400 5407 5414 5422
5507 5505 5503 5501 5499 5495 5489 5485 5479 5473 5465 5458 5450 5444 5436 5427 5419 5411 5403 5396 5388 5382 5376 5372 5367 5365 5363 5363 5363 5364 5365 5367 5369 5372 5376 5381 5386 5392 5399 5405 5412 5419 5425
5501 5500 5499 5497 5493 5487 5483 5478 5471 5464 5457 5450 5442 5434 5425 5416 5409 5402 5395 5387 5380 5374 5370 5365 5361 5359 5359 5360 5360 5362 5364 5367 5370 5373 5377 5383 5389 5395 5401 5408 5415 5420 5423
5496 5495 5493 5490 5486 5481 5476 5470 5463 5457 5451 5442 5433 5423 5415 5408 5401 5394 5387 5380 5373 5367 5362 5358 5355 5355 5356 5356 5356 5358 5362 5365 5368 5372 5378 5385 5391 5397 5404 5410 5414 5418 5421
5491 5489 5487 5484 5480 5475 5469 5462 5457 5452 5444 5434 5424 5415 5408 5401 5393 5386 5380 5374 5368 5363 5358 5355 5352 5353 5353 5355 5358 5361 5364 5366 5369 5373 5379 5384 5390 5397 5403 5409 5414 5417 5419